STARLINK-32699

Last updated on Fri Jan 31 2025 00:02:04 GMT+0000 (Coordinated Universal Time)

1 62482U 24254W 25030.58334491 .00079116 00000+0 18858-2 0 9991 2 62482 43.0003 137.0773 0001714 266.6290 137.5086 15.40632969 5871
UTC large
Height (km)
Speed (km/s)
/
Latitude / Longitude
Inclination (degrees)
Orbital Period (minutes)
Azimuth
Elevation
Range (km)
Doppler Factor

Next 0 passes for location: London (51.5072 / 0.1276)

Sorry there are no passes over London.